GFSSW_prec_cthk_024.txt.gz
RH
18 12 10 9 6 6 6 6 6 5 5 5 5 5 4 4 4 4 8 6 5 4 4 6 9 13 17 23 43 46 55 48 31 35 34 36 39 34 35 27 33 36 40 38 37
15 13 11 8 7 6 6 6 6 5 5 5 5 5 5 5 5 8 7 5 4 4 5 8 9 10 17 32 44 44 56 45 32 28 31 31 31 35 47 59 42 42 37 38 38
15 15 13 10 7 6 6 6 5 5 5 5 5 5 5 6 14 15 6 5 4 4 6 7 8 12 23 35 41 43 42 34 28 20 23 31 37 36 39 54 36 43 37 39 39
16 14 13 10 8 7 6 6 5 5 5 5 5 5 5 11 23 13 6 5 4 4 6 8 9 13 22 31 37 44 33 28 21 19 23 26 24 34 37 47 48 45 37 38 38
13 13 12 10 8 8 7 6 5 5 5 4 4 4 5 10 14 8 5 5 5 6 7 9 10 14 21 35 28 33 29 19 22 22 21 23 28 28 27 37 34 36 37 40 37
12 12 11 8 8 8 7 7 6 5 5 4 4 4 4 9 11 7 6 5 7 7 9 9 11 13 19 22 23 26 26 22 22 23 24 26 32 35 33 28 31 35 40 43 43
11 11 10 8 8 8 7 7 6 6 5 5 5 4 6 8 10 6 6 7 7 7 9 10 10 12 14 18 19 20 16 20 23 23 20 24 31 39 33 25 32 34 38 47 49
12 11 10 9 8 8 7 7 7 6 6 5 5 5 9 8 7 7 7 7 6 6 9 9 8 9 10 15 14 13 18 22 25 28 20 20 41 35 24 35 39 36 41 45 50
11 11 11 9 8 7 7 7 7 7 6 6 7 8 9 9 5 7 7 8 7 6 7 7 7 9 10 9 11 14 20 21 32 25 16 13 22 28 28 35 40 39 38 43 49
11 11 10 10 8 8 7 8 7 7 7 6 6 9 8 8 7 9 9 8 7 6 7 7 7 8 9 11 13 15 13 12 22 18 17 15 20 22 27 28 39 40 37 42 51
13 11 10 10 9 8 7 8 13 17 12 9 14 8 11 10 8 9 9 7 7 7 7 9 9 10 10 13 14 14 16 15 15 15 14 13 15 19 23 23 31 44 39 43 50
16 13 12 9 9 9 8 11 13 14 13 10 11 12 10 10 9 9 10 8 8 8 8 15 8 12 15 13 11 10 12 12 14 15 15 12 14 19 20 21 26 46 43 41 49
14 16 13 12 9 9 10 14 12 10 11 8 9 8 9 8 10 10 10 8 10 9 12 13 18 13 12 10 8 9 11 14 17 19 15 17 16 19 20 22 24 20 41 37 48
12 13 15 14 12 12 11 14 10 11 11 9 10 9 8 8 9 14 10 9 13 12 13 14 16 15 13 8 11 15 19 16 12 13 17 20 20 17 23 26 30 31 34 39 47
11 12 12 14 18 15 16 12 11 12 15 9 11 9 8 8 10 11 12 11 15 15 17 16 13 14 9 10 12 15 20 18 13 13 14 14 16 23 21 24 33 42 38 39 48
13 13 12 13 14 18 16 12 11 14 13 17 14 11 9 8 11 14 13 12 17 20 17 20 20 14 11 10 11 11 13 12 11 12 14 17 16 18 24 26 37 37 36 39 44
14 13 13 13 17 17 16 15 15 15 11 18 16 13 10 9 10 15 15 14 17 18 18 14 16 12 12 14 14 12 13 16 19 20 22 28 25 23 21 23 21 26 33 38 40
15 15 15 14 17 17 16 18 21 14 13 14 19 14 11 10 10 14 16 17 15 19 23 23 22 16 14 12 17 19 17 18 24 21 26 28 30 27 24 24 24 22 35 39 39
16 18 16 17 16 16 17 21 18 17 14 18 19 17 14 12 13 13 17 17 18 16 21 24 25 21 23 20 14 14 16 18 21 18 18 16 22 30 30 30 35 33 38 40 45
24 21 23 21 19 18 18 19 15 20 22 20 19 15 16 15 15 17 21 18 20 21 20 26 28 25 23 18 15 15 16 22 25 23 22 17 28 40 43 58 42 38 41 40 40
22 29 26 21 19 19 18 16 19 24 22 20 17 23 18 18 17 18 23 23 22 26 26 22 24 24 25 21 19 20 20 18 15 22 26 27 39 36 36 57 44 40 40 37 37
26 34 34 21 19 18 18 17 22 28 19 17 15 21 22 24 22 19 20 23 22 24 28 23 23 26 25 24 21 19 21 25 29 25 22 23 31 38 33 36 43 37 34 35 41
32 42 37 25 18 17 18 20 23 23 19 16 15 16 20 27 26 19 24 23 25 23 28 25 23 25 26 24 22 22 23 18 19 23 27 41 47 32 43 39 39 43 37 36 44
30 28 29 30 24 24 24 20 24 21 21 22 19 19 19 19 20 24 24 23 25 22 22 22 25 26 25 28 31 29 30 25 22 26 25 27 31 48 45 47 47 52 37 43 45
33 42 41 27 26 28 26 26 26 24 20 22 21 21 21 23 23 22 21 26 21 20 20 21 26 26 21 23 29 28 30 27 25 25 27 25 36 45 46 44 55 63 47 49 47
37 48 41 40 35 36 33 29 27 25 23 22 23 23 23 23 24 27 24 22 27 21 20 21 23 23 24 23 24 24 22 21 21 24 26 25 27 35 46 43 57 70 43 49 48
24 31 36 37 29 32 35 36 34 29 26 30 28 23 22 24 27 32 33 31 36 30 25 23 27 28 28 27 27 30 23 22 23 23 22 28 30 48 57 51 72 67 42 43 51

GFSSW_prec_cthk_027.txt.gz
RH
19 18 13 11 9 7 6 6 6 5 5 5 5 4 4 4 4 4 6 5 5 4 5 10 16 24 28 43 42 43 61 63 55 45 35 35 37 33 36 33 31 29 31 32 36
17 17 12 10 9 6 6 6 6 5 5 5 5 5 4 4 6 5 6 6 4 4 4 7 11 16 30 39 47 50 43 44 40 34 32 35 38 39 38 33 35 34 36 36 32
15 15 14 12 8 6 6 6 5 5 5 5 5 5 4 6 14 12 8 5 4 4 6 6 10 22 29 30 41 39 33 28 29 26 26 32 40 40 39 34 29 33 33 34 31
14 15 15 13 10 7 6 6 5 5 5 5 5 5 5 12 21 12 5 4 4 4 6 7 12 26 27 32 41 40 28 27 26 20 23 22 30 38 34 28 27 31 31 35 35
14 15 15 13 12 8 6 6 5 5 5 4 4 4 4 8 14 11 6 5 5 5 6 8 13 20 22 27 37 30 30 22 23 22 21 23 30 33 30 32 32 30 33 36 38
14 14 13 12 12 8 7 6 6 5 5 4 4 4 4 8 10 9 6 5 6 7 7 9 12 15 18 23 29 27 27 21 20 22 28 23 29 36 40 36 35 32 36 36 38
12 12 12 12 11 8 7 7 6 6 5 5 4 4 4 5 8 7 5 6 7 7 7 9 9 13 15 19 22 22 19 16 24 28 26 18 28 30 34 34 33 37 37 39 47
11 11 11 11 10 8 8 7 7 6 5 5 5 5 5 7 6 5 5 6 6 6 7 9 7 11 12 14 14 12 13 23 30 30 30 22 27 25 31 31 35 39 40 46 47
11 11 11 10 10 9 7 7 7 6 6 5 7 8 7 8 7 5 6 6 7 5 6 7 6 7 9 9 12 14 17 19 25 30 26 20 20 30 32 31 33 37 45 42 45
11 10 10 10 10 9 8 7 7 7 6 6 6 7 7 8 7 5 6 7 8 5 6 6 6 7 8 11 15 16 18 19 24 21 20 17 17 27 29 26 30 34 38 38 39
13 11 10 10 9 9 8 8 12 15 12 9 12 8 9 9 7 8 8 8 6 6 6 6 8 8 9 12 13 15 16 16 16 16 17 15 12 17 21 23 30 31 38 41 40
15 13 12 10 10 9 8 16 13 12 11 11 9 10 10 10 9 7 10 8 7 7 7 9 10 8 12 13 13 13 14 15 15 16 15 13 13 15 21 24 28 34 41 41 40
13 15 14 12 10 9 10 12 12 12 10 8 7 8 9 9 9 10 8 8 8 8 8 13 14 13 13 13 12 11 9 13 15 15 15 16 18 19 19 23 30 34 39 38 38
10 12 14 14 12 13 12 13 11 11 13 8 8 7 8 8 7 8 10 8 9 10 10 14 15 16 15 12 9 9 15 15 13 13 14 18 20 18 20 23 30 39 38 43 42
10 9 12 13 17 16 15 12 11 12 21 9 8 8 8 8 10 8 10 10 10 12 13 14 15 15 13 9 10 11 15 17 16 13 11 11 19 23 25 31 34 38 50 48 45
12 10 10 11 12 17 16 14 11 16 18 13 12 10 9 8 8 11 13 12 10 15 17 17 20 17 12 9 10 11 13 12 11 12 18 23 23 26 27 34 42 38 35 47 50
13 12 11 12 12 15 17 16 17 20 9 11 14 12 11 9 9 12 15 13 13 18 19 19 19 15 12 11 11 12 12 18 18 26 30 26 27 32 30 33 35 41 50 49 45
28 13 13 13 14 15 15 19 25 14 9 16 20 18 14 11 9 11 16 16 13 16 21 24 19 13 16 11 14 17 18 22 21 26 28 25 26 28 29 37 46 60 50 47 40
24 23 15 14 13 16 15 22 20 17 12 16 18 21 17 12 11 11 16 16 15 15 22 26 29 28 25 19 16 15 17 18 21 19 21 21 27 29 34 38 42 46 72 43 39
23 26 19 20 15 15 18 19 16 18 17 17 20 19 19 16 13 14 15 14 16 17 17 26 34 27 24 23 20 18 14 18 24 27 30 26 35 39 46 44 42 32 45 52 32
21 34 28 22 18 18 21 16 14 21 22 20 21 22 20 20 18 16 16 17 20 18 20 25 32 32 28 26 24 19 17 20 22 22 26 29 31 36 36 38 46 38 55 55 36
24 38 40 27 20 19 20 16 15 26 22 22 22 21 21 22 23 18 17 21 25 24 24 23 29 33 32 27 25 21 22 25 33 30 31 31 40 38 43 47 48 58 71 61 42
23 38 38 37 23 19 18 17 16 27 22 24 21 20 21 23 29 24 20 20 23 26 28 31 31 27 28 27 26 27 26 22 23 27 25 29 35 38 44 49 51 60 71 69 45
35 38 32 33 31 20 21 22 21 26 20 19 21 20 23 24 29 27 24 23 23 25 25 30 33 31 26 28 30 30 28 27 26 29 24 25 35 37 41 40 45 58 63 72 60
31 50 49 38 30 26 23 24 26 27 24 21 20 19 23 24 31 26 27 27 25 25 25 27 29 29 25 24 25 24 28 28 31 31 31 29 36 39 36 31 44 40 45 59 60
36 46 44 41 42 28 31 27 29 28 26 23 22 19 19 23 29 32 32 35 31 24 23 24 28 25 27 22 23 22 23 24 27 24 24 32 40 46 44 43 38 42 38 51 59
27 33 43 39 31 39 40 32 29 31 27 26 27 27 27 32 30 29 28 27 30 30 26 23 27 25 27 23 24 27 21 27 30 28 29 26 35 41 45 47 44 39 34 46 55

GFSSW_prec_cthk_030.txt.gz
RH
19 19 16 13 10 9 7 6 6 6 5 5 5 4 4 4 4 4 5 6 8 10 14 18 26 32 30 38 42 42 44 43 41 44 45 42 38 38 38 33 34 31 26 27 34
19 19 18 12 11 8 7 6 6 5 5 5 5 4 4 4 6 5 6 5 4 4 7 15 24 29 32 36 35 35 43 37 34 37 40 41 36 38 32 31 30 33 28 31 33
19 18 17 12 9 8 6 6 5 5 5 5 5 4 4 8 13 10 6 4 4 4 5 13 19 29 32 36 39 37 37 35 35 33 31 37 33 33 28 29 26 29 29 31 34
18 16 16 14 12 8 6 6 5 5 5 5 5 4 5 10 18 10 5 4 4 4 6 10 20 27 30 33 38 36 32 29 26 30 30 27 28 26 25 28 27 29 27 30 34
16 15 15 16 14 10 7 6 5 5 5 4 4 4 4 7 13 11 7 5 4 6 7 14 21 27 25 24 31 37 31 27 24 22 24 22 28 29 30 27 32 33 30 32 36
14 14 13 15 14 13 8 6 6 5 5 4 4 4 4 7 8 9 7 6 6 7 7 12 20 23 22 20 23 27 27 22 21 24 24 23 24 27 29 28 31 30 32 34 38
12 12 13 13 14 12 9 7 6 5 5 4 4 4 4 4 6 7 5 6 6 7 7 8 17 20 21 20 19 19 20 23 23 23 25 28 28 24 26 28 29 32 32 36 33
11 11 12 12 12 11 10 7 6 6 5 5 4 5 4 6 6 5 5 5 5 6 7 8 7 12 17 17 18 17 20 25 24 27 27 24 20 21 27 28 32 33 33 37 37
11 11 11 11 11 11 10 7 7 6 5 5 5 6 4 6 6 6 5 5 6 6 6 7 6 10 11 14 17 17 18 19 19 26 27 24 18 23 30 32 36 36 37 38 43
11 11 10 10 10 10 10 8 8 7 7 5 5 5 6 7 6 6 5 7 7 6 5 6 7 8 9 13 16 16 17 19 23 24 25 21 19 20 29 31 36 36 39 40 43
13 11 10 10 9 10 9 11 11 12 9 8 8 6 7 8 7 6 6 7 7 6 6 6 8 8 9 14 13 13 15 17 16 18 19 17 15 15 25 35 37 35 39 43 45
14 14 12 10 10 9 11 13 14 12 9 9 8 8 7 8 9 7 8 8 6 6 6 7 7 7 11 12 13 13 14 15 15 18 19 18 17 18 22 29 32 36 39 42 44
11 13 14 12 11 10 11 12 12 13 10 7 7 7 8 8 9 8 8 8 7 7 8 10 9 12 12 11 12 12 14 15 16 16 19 19 16 17 21 26 33 37 38 40 43
11 10 12 15 13 13 13 13 11 11 14 8 7 6 7 9 8 7 8 9 9 8 10 12 11 12 13 12 12 11 13 17 18 17 17 14 17 18 20 28 35 40 42 42 44
14 11 9 12 15 16 14 13 12 11 12 9 8 7 6 8 8 7 7 10 9 9 11 14 14 15 14 12 10 9 12 13 13 14 14 10 15 17 25 37 42 45 45 43 46
13 12 9 9 12 16 17 16 13 16 15 10 10 10 9 8 9 9 11 11 11 12 13 13 15 16 15 12 10 10 12 12 15 13 16 20 25 28 34 36 40 40 40 51 53
27 13 11 9 11 14 16 17 18 21 10 10 12 11 12 10 9 10 11 13 13 13 15 14 16 16 13 12 11 11 13 18 16 22 24 23 28 30 29 30 32 39 50 62 55
27 27 12 11 11 13 15 17 21 15 10 13 14 14 15 13 10 10 11 14 14 13 18 20 20 13 18 15 13 13 15 19 18 21 23 22 23 31 31 31 36 43 49 50 83
25 27 22 12 12 16 14 19 17 18 13 14 15 16 16 16 12 12 14 15 14 12 16 20 20 21 22 24 20 17 16 18 20 22 23 24 29 34 43 40 50 56 52 47 71
21 24 26 22 14 18 18 19 14 16 18 15 20 20 20 18 15 13 13 13 14 13 13 20 23 25 21 25 23 20 19 20 22 23 23 27 31 37 42 44 53 49 50 49 55
21 30 30 27 19 18 19 17 13 15 18 18 21 22 22 22 18 14 13 13 14 15 14 22 26 27 25 26 25 25 22 19 20 25 26 29 26 34 39 43 45 43 43 46 48
24 34 33 34 24 21 19 16 13 15 18 20 20 22 23 22 21 21 16 16 18 17 16 22 30 32 30 28 27 26 24 24 29 24 30 32 33 33 37 37 38 41 45 47 40
26 36 36 39 34 23 19 17 15 15 20 23 21 22 21 21 23 25 22 18 19 23 24 21 31 31 32 30 29 29 29 28 29 28 26 30 29 32 34 36 40 40 39 38 48
27 44 40 37 39 30 21 20 20 19 24 23 23 23 23 21 23 26 24 21 21 23 26 28 31 27 31 32 31 30 29 28 29 31 29 33 35 37 41 46 48 45 40 36 42
34 49 40 41 36 37 23 22 24 24 26 21 24 24 24 22 25 32 28 26 23 22 26 28 32 32 29 27 28 28 26 26 29 28 29 28 33 35 40 48 50 49 50 46 49
35 46 40 41 41 37 29 21 26 25 27 21 22 24 27 31 32 35 35 32 31 26 25 28 30 30 28 29 26 27 25 28 28 28 27 32 34 35 42 48 50 50 52 54 60
26 36 44 45 41 40 45 30 29 29 29 29 22 24 29 30 30 33 35 34 31 30 28 29 28 29 28 28 28 26 22 22 31 35 36 34 36 40 46 42 48 53 44 44 56

GFSSW_prec_cthk_033.txt.gz
RH
22 20 18 16 14 11 9 8 7 7 7 6 5 5 7 8 10 10 11 12 13 16 23 26 28 34 38 36 40 43 43 42 39 37 36 39 43 39 37 37 33 31 26 25 35
22 20 19 16 13 11 9 7 6 6 5 5 5 5 5 5 7 6 6 6 8 11 18 22 26 28 37 36 37 39 41 34 31 32 33 36 39 36 35 37 38 33 26 28 33
22 19 19 18 12 11 8 6 6 5 5 5 5 5 5 10 10 6 5 4 4 5 12 19 25 25 37 36 36 35 36 33 31 30 31 34 36 33 33 37 35 33 28 30 33
21 20 19 16 13 9 8 6 6 5 5 5 5 5 6 13 14 8 5 4 4 4 9 16 23 25 32 30 26 32 31 32 30 27 28 30 32 32 35 34 30 27 26 30 35
18 19 18 17 14 12 8 6 6 5 5 5 5 5 5 9 13 10 6 5 6 7 8 15 19 21 30 30 27 27 27 27 24 29 25 26 29 32 29 29 28 28 28 31 34
16 16 16 15 16 15 12 7 6 5 5 5 4 4 4 6 9 9 7 6 6 7 8 13 20 21 26 26 28 24 24 23 20 21 24 27 30 27 25 28 28 30 32 34 32
14 14 15 15 14 15 13 9 6 5 5 5 4 4 4 4 7 8 6 6 7 7 8 15 22 25 22 23 22 20 22 21 23 22 22 25 26 23 24 28 29 32 35 36 38
12 11 12 12 13 14 13 12 7 6 5 5 4 5 5 5 5 5 6 5 6 7 7 11 20 24 24 21 19 19 21 25 27 26 25 25 21 21 24 26 29 33 37 38 39
12 11 11 11 12 12 12 12 9 6 5 5 5 6 5 5 5 6 5 5 6 6 7 7 9 17 20 21 20 22 22 18 20 20 23 27 24 20 25 26 30 34 40 43 44
11 10 11 10 10 11 11 10 10 8 8 6 5 5 5 7 7 6 6 6 6 6 6 6 7 10 13 18 19 19 19 18 20 19 23 24 19 21 23 25 29 33 40 46 48
12 11 10 10 10 10 10 11 13 11 10 8 7 5 7 8 7 7 5 7 7 6 6 6 7 8 12 14 14 17 18 15 16 18 20 20 19 19 22 28 33 33 39 46 49
14 13 12 11 10 10 12 13 14 14 11 8 8 7 7 7 8 7 8 7 7 7 6 7 7 7 10 13 14 16 16 14 15 17 18 20 17 20 21 22 27 30 36 44 52
13 13 13 12 11 10 12 12 12 13 13 8 7 7 7 7 8 8 8 8 7 7 7 8 7 8 11 13 14 12 14 13 16 16 17 18 18 19 21 23 27 34 38 47 49
11 10 10 12 13 12 13 12 12 11 13 9 7 6 7 8 8 7 8 9 9 8 8 9 10 11 13 13 12 11 12 14 17 18 18 17 20 15 21 26 28 31 40 49 51
13 12 10 9 12 14 14 14 12 12 10 9 8 6 6 8 7 7 7 9 9 8 10 13 13 14 15 13 11 11 12 15 14 16 17 15 18 16 23 32 34 35 40 42 45
21 14 13 11 10 14 16 16 14 15 13 10 11 9 7 8 8 9 8 9 9 10 10 13 13 14 14 12 12 12 12 13 15 15 16 17 21 24 33 37 40 44 48 52 60
23 23 13 13 11 13 16 18 17 19 10 11 11 12 10 8 9 9 10 11 11 11 12 13 16 15 15 12 12 11 13 16 14 20 20 21 24 26 31 32 40 47 50 60 66
25 24 24 13 11 12 15 18 17 14 12 12 13 12 13 12 10 11 11 12 12 13 15 16 17 15 15 16 14 12 13 19 17 20 20 21 25 27 33 33 43 46 67 58 45
22 24 25 22 12 13 15 19 16 17 17 14 14 13 13 14 14 11 12 12 12 13 13 18 16 16 18 20 18 17 17 17 21 23 23 25 30 31 37 42 42 45 47 44 45
21 23 26 27 18 15 17 16 15 16 18 15 16 15 16 16 15 13 13 11 12 13 13 14 16 18 22 19 20 19 20 20 22 22 22 25 26 33 41 47 46 44 37 43 45
21 27 29 28 26 21 19 18 14 14 18 18 17 18 16 18 16 15 13 12 11 14 15 13 21 25 23 22 25 24 24 24 24 24 24 27 27 32 38 46 45 44 41 39 38
24 29 30 31 28 29 25 19 15 13 15 18 18 19 18 18 20 20 14 12 12 15 16 15 21 28 27 25 27 26 27 26 27 25 32 30 27 31 36 38 38 36 39 41 44
26 31 32 32 37 28 24 20 16 14 14 18 19 21 22 21 22 21 17 14 15 16 16 17 21 28 30 28 29 30 30 29 27 27 28 28 30 35 35 36 34 40 42 40 45
30 40 36 34 38 36 29 24 18 16 18 18 20 22 23 24 25 22 20 18 17 18 18 21 22 26 31 28 32 31 31 29 28 30 29 29 26 35 36 38 35 34 35 41 48
30 41 38 39 37 41 35 27 22 19 21 22 22 23 24 25 27 30 27 24 21 19 22 23 27 27 28 31 31 32 31 31 30 32 32 29 31 31 35 36 36 34 37 41 46
24 36 38 42 41 40 43 30 24 22 23 24 23 26 27 28 29 32 30 28 26 23 24 25 29 26 27 30 30 30 31 30 32 36 30 33 35 35 34 35 35 36 37 38 39
22 34 39 45 42 36 38 36 28 29 28 31 29 28 32 31 31 29 32 31 30 28 29 29 30 30 29 35 32 31 33 32 36 39 36 29 30 32 34 37 39 39 40 39 41

GFSSW_prec_cthk_036.txt.gz
RH
23 22 19 18 17 14 11 9 9 8 7 8 8 6 7 7 9 12 15 16 16 18 25 27 34 33 37 32 40 44 45 44 37 38 40 42 44 43 42 41 38 34 29 30 33
24 21 19 18 15 13 12 9 8 6 6 7 7 5 6 9 11 11 12 12 12 14 19 22 27 31 31 36 38 41 43 40 33 34 34 38 40 42 44 40 36 32 27 33 37
21 21 21 19 17 12 11 9 7 6 6 5 5 5 7 8 8 6 5 6 8 10 15 21 23 29 30 35 36 39 33 32 30 29 29 33 38 40 40 40 33 28 26 34 37
21 22 21 18 18 14 11 9 6 6 5 5 5 5 8 10 12 9 5 4 4 6 13 21 20 27 28 27 30 30 32 29 27 26 27 30 36 36 36 34 30 27 26 29 33
18 19 21 18 17 14 10 9 6 5 5 5 5 5 6 11 12 10 6 5 6 6 10 18 20 23 26 26 26 29 28 25 24 25 24 29 30 32 33 33 34 31 32 32 32
17 17 19 18 17 15 12 9 6 5 5 5 5 5 5 7 10 9 7 6 7 7 8 16 19 23 25 24 26 23 22 21 21 21 23 26 27 30 31 30 33 35 35 36 37
16 16 17 17 16 16 16 13 9 6 5 5 5 4 4 4 7 8 7 7 7 8 8 13 18 18 24 26 27 22 19 19 20 20 22 24 26 26 27 30 33 35 40 41 45
12 14 14 15 14 15 16 15 13 7 5 5 5 4 4 4 5 6 6 7 8 8 8 11 19 18 19 24 28 22 21 21 20 21 23 25 25 23 25 27 31 34 41 46 50
12 12 12 13 13 14 13 13 13 11 6 5 5 5 4 5 5 6 6 6 7 8 8 10 16 18 19 22 24 24 20 19 19 20 21 22 24 21 24 26 29 33 39 44 51
11 12 12 11 10 11 12 13 12 13 9 7 6 5 4 6 6 7 6 6 7 7 7 8 14 16 20 20 22 22 17 16 15 17 20 24 23 22 23 25 27 31 37 42 49
12 11 11 11 11 10 11 13 13 14 11 8 7 5 6 7 7 7 6 6 6 6 6 7 7 11 16 17 18 18 17 17 16 15 18 22 20 19 22 24 25 28 31 40 51
13 12 11 10 10 10 12 12 13 13 12 8 7 7 7 8 8 8 6 7 6 7 6 7 7 7 10 13 14 16 16 14 15 15 16 19 19 17 22 22 25 28 31 42 54
14 14 13 12 12 10 12 12 13 13 14 10 8 6 7 7 8 8 8 8 7 7 6 7 6 8 9 12 14 14 14 14 17 16 16 17 20 18 17 20 21 28 31 38 51
14 13 13 13 13 13 13 13 12 12 13 11 9 6 6 8 8 8 8 9 9 8 7 7 8 9 10 13 13 13 13 14 16 16 18 17 19 18 19 25 26 27 30 48 65
13 12 11 11 11 13 15 14 14 12 11 9 10 9 7 7 8 7 8 9 9 8 8 9 10 11 11 12 13 12 11 14 14 15 16 19 20 18 27 31 33 34 38 45 53
16 16 12 11 9 11 14 16 15 14 12 10 11 10 9 8 8 8 9 9 10 10 9 11 11 12 14 14 12 12 12 14 16 16 17 18 18 21 26 28 31 40 42 49 55
21 20 19 13 12 11 14 16 17 16 10 12 12 12 10 8 9 8 10 10 11 11 10 12 13 14 15 14 13 13 15 17 15 19 19 20 21 20 23 28 31 39 45 52 53
23 22 21 21 13 14 16 18 14 13 13 12 13 12 12 10 9 10 10 11 11 12 13 14 16 15 15 15 15 14 14 17 15 19 20 19 20 23 30 33 35 38 44 46 53
24 22 23 25 21 15 17 21 16 14 17 14 13 13 13 12 12 10 11 12 12 12 13 15 14 16 18 18 17 17 14 15 22 23 22 25 27 23 31 35 35 35 37 43 43
23 24 23 27 25 21 18 18 15 15 16 17 15 15 15 15 14 13 13 11 11 13 13 13 14 13 17 17 21 20 19 20 21 21 21 25 23 28 30 34 33 33 33 37 40
21 27 27 25 28 26 24 17 15 13 14 17 17 17 16 16 16 15 14 11 11 12 14 15 15 17 19 20 21 21 21 23 24 25 26 27 26 23 27 35 36 36 34 38 42
22 30 28 25 31 33 29 20 15 12 13 15 18 17 18 16 17 16 14 13 12 12 15 15 17 23 24 22 23 24 26 25 26 24 32 28 24 25 30 33 34 38 38 40 41
16 26 28 25 31 33 29 25 16 15 13 15 17 18 19 18 18 21 19 15 14 13 14 16 18 28 29 27 28 26 27 30 29 29 31 27 27 27 32 35 33 34 35 35 40
21 25 30 26 31 35 35 29 25 16 16 15 17 18 20 20 21 22 21 17 16 16 16 16 20 21 31 29 29 28 29 30 30 33 31 30 26 26 32 33 32 32 34 38 39
25 30 28 36 34 38 40 35 29 24 19 19 18 18 22 22 25 27 26 22 19 20 19 19 20 19 24 31 31 30 31 31 31 32 32 32 32 28 27 28 30 34 37 41 44
21 29 31 36 40 36 40 41 32 28 23 21 20 20 23 25 25 30 29 26 25 23 22 23 25 23 23 30 33 34 34 33 36 35 33 35 34 29 27 27 29 38 39 42 45
21 28 29 38 40 37 36 41 36 31 28 26 26 24 26 29 30 30 30 29 29 27 28 27 28 27 31 31 29 32 36 38 44 44 39 34 29 30 27 28 31 34 37 42 46

GFSSW_prec_cthk_042.txt.gz
RH
20 18 19 20 19 17 12 10 10 9 9 8 7 7 8 10 16 22 25 26 27 26 23 23 29 33 36 38 37 38 42 41 37 39 36 35 38 34 33 31 26 31 34 39 37
20 20 19 19 18 15 11 11 10 9 9 7 7 8 7 8 9 16 21 23 24 24 22 24 30 30 32 33 40 39 43 35 29 29 32 31 36 35 35 33 28 33 34 37 38
19 21 20 19 17 14 13 12 10 9 9 6 7 8 10 9 8 11 13 19 20 20 19 21 24 29 32 33 40 42 42 28 26 25 26 30 29 34 36 34 32 37 38 37 37
23 22 21 20 18 18 16 13 10 10 8 6 6 6 9 10 14 11 10 12 13 15 16 19 22 26 30 35 35 39 35 31 26 26 28 28 30 29 34 38 30 35 39 44 41
24 21 22 19 19 17 16 15 10 10 8 6 5 5 7 8 13 10 8 9 11 12 14 17 21 25 30 31 38 35 31 30 26 24 28 26 28 30 32 36 35 36 39 45 49
22 21 19 20 19 16 16 15 10 10 8 5 5 5 5 7 10 8 6 6 7 10 12 15 19 23 28 33 38 33 31 27 24 23 23 23 25 27 28 32 37 39 41 48 50
17 19 19 20 19 18 18 15 11 9 8 5 5 5 5 6 8 8 7 6 7 8 10 14 18 22 28 33 33 32 30 30 23 19 23 22 23 22 25 29 34 40 43 48 46
15 16 16 20 19 18 17 17 13 11 7 5 5 5 5 4 6 7 7 7 7 7 8 12 16 21 25 30 31 33 28 27 21 14 17 24 29 29 27 27 33 34 39 46 48
14 15 15 13 14 17 17 16 16 14 12 9 5 6 6 4 5 7 7 8 8 7 7 8 14 16 20 26 30 29 30 25 24 15 17 21 27 25 26 25 28 33 39 45 48
13 13 13 14 14 15 15 16 16 16 15 13 9 6 5 6 6 6 6 7 8 8 7 7 10 15 19 22 27 28 28 24 22 15 15 17 20 24 25 26 31 33 36 41 44
13 12 12 12 12 13 13 14 15 17 16 15 14 8 6 6 6 6 7 6 7 8 8 7 8 11 16 22 20 22 21 21 19 15 16 19 23 22 24 27 28 32 34 36 40
13 13 12 11 11 11 12 14 13 13 13 12 12 10 6 6 7 7 7 7 7 7 8 7 7 10 13 14 16 16 19 22 16 16 16 18 19 19 23 24 23 24 29 30 36
12 12 12 12 11 11 12 13 13 12 13 13 11 11 7 6 6 8 7 8 8 7 6 7 9 8 10 14 15 16 18 20 18 18 16 16 20 20 18 24 22 23 27 32 41
14 12 12 12 12 11 13 12 13 13 12 12 11 11 10 7 7 7 8 9 8 8 7 6 6 7 8 9 10 14 13 14 15 18 19 17 16 22 18 22 24 24 26 32 38
14 14 13 12 12 12 14 13 12 12 12 11 11 11 10 9 9 7 8 9 10 9 7 7 6 6 8 9 9 17 14 13 16 18 18 20 15 19 20 26 23 28 30 34 39
14 14 14 14 13 13 14 15 15 14 12 10 11 11 11 11 10 10 8 9 10 10 8 9 8 9 9 12 9 13 13 13 13 15 14 20 13 18 22 19 21 26 30 35 41
15 14 14 15 16 13 15 16 17 16 13 12 12 11 10 11 11 11 11 10 10 11 11 8 9 8 9 11 9 12 14 16 17 15 16 20 14 19 18 17 20 25 33 37 42
19 16 15 15 15 12 15 16 17 14 13 12 12 12 12 10 11 12 13 12 10 11 12 11 10 10 11 13 14 12 17 16 22 17 17 18 17 30 16 19 24 24 31 37 44
27 24 20 18 19 16 16 17 14 13 13 13 12 12 13 12 10 11 12 13 12 10 12 11 11 13 13 14 15 18 15 19 20 17 15 20 22 17 17 23 26 28 31 38 44
25 30 28 25 23 23 20 17 16 12 12 12 12 13 15 15 12 11 12 11 11 11 11 16 15 12 15 15 16 17 21 18 17 23 23 22 24 21 20 26 28 29 33 37 43
22 28 27 27 26 29 26 22 19 14 14 14 15 14 15 16 14 14 13 11 9 10 11 13 14 20 15 16 22 19 18 18 23 21 21 23 24 21 20 22 27 34 37 37 37
13 21 24 23 29 32 31 28 24 18 14 14 15 15 15 16 16 16 14 13 11 12 12 13 16 18 16 19 17 21 24 25 24 29 20 25 24 21 22 25 28 34 37 39 39
17 16 11 20 26 29 32 31 28 23 19 14 13 15 16 18 18 18 19 15 14 13 13 15 16 19 19 19 17 16 17 20 28 27 28 24 26 22 23 27 30 35 36 41 41
18 18 14 12 22 28 32 32 32 28 22 17 14 14 16 17 19 20 20 18 16 16 17 16 17 18 18 24 25 23 18 20 26 27 30 25 33 29 27 28 29 33 36 38 38
19 22 21 18 15 21 28 33 34 32 27 22 17 14 16 19 20 21 21 22 20 19 18 17 20 19 17 28 24 27 25 23 28 28 29 28 32 36 32 32 31 30 31 34 39
21 23 21 22 22 20 23 29 33 37 34 26 21 19 18 18 21 31 28 25 23 21 22 21 21 19 20 19 22 27 28 28 31 32 32 31 34 34 35 35 29 30 33 35 38
17 19 25 26 24 23 25 25 29 33 35 32 28 24 23 22 20 25 25 26 26 24 26 26 21 23 19 22 25 29 29 29 32 32 32 34 42 36 34 33 33 34 35 37 39

GFSSW_prec_cthk_045.txt.gz
RH
19 18 18 20 19 18 15 12 10 8 8 8 7 7 8 13 15 20 25 23 24 23 27 27 32 38 35 39 29 36 59 51 31 40 38 40 43 35 33 28 34 33 36 36 34
19 19 19 19 20 16 14 12 10 9 8 8 7 7 7 9 12 19 20 24 26 23 22 23 24 34 33 34 27 41 57 38 31 31 34 34 46 41 52 33 37 36 34 32 34
20 19 20 20 18 16 13 10 10 10 8 8 7 7 9 9 8 18 16 21 24 22 21 22 23 28 32 31 36 40 45 31 28 25 28 37 37 44 38 45 36 39 37 33 35
19 21 22 20 17 16 15 13 11 10 8 8 6 7 10 10 23 15 8 13 19 21 20 19 21 26 31 31 31 35 38 25 30 29 32 34 39 39 41 37 32 35 32 38 38
20 22 21 20 18 18 16 14 13 10 9 7 6 5 8 11 20 10 7 8 13 17 17 16 19 23 30 32 30 37 34 31 28 25 27 29 35 38 38 49 34 31 33 37 41
23 21 22 22 20 19 16 13 14 12 9 8 6 5 6 10 13 9 9 9 12 13 14 15 18 22 31 33 34 36 32 28 26 27 22 22 29 34 37 37 32 31 34 35 43
18 21 21 21 20 17 17 15 15 11 9 8 5 5 6 8 7 9 7 6 8 10 12 13 14 20 28 30 33 29 27 27 26 24 24 22 28 32 34 29 32 32 33 36 39
16 17 18 18 18 19 18 15 16 13 10 8 5 5 8 6 6 8 8 7 7 7 9 11 13 18 22 32 25 31 28 23 27 21 18 16 33 39 37 34 34 34 32 37 37
15 14 15 17 17 20 19 16 16 15 12 9 6 7 8 5 4 6 8 8 9 8 8 7 11 17 22 24 30 26 30 28 23 17 14 16 24 36 28 36 36 34 32 37 41
13 14 14 14 14 17 18 17 15 17 15 13 12 8 6 6 7 7 7 7 8 9 8 7 10 14 17 24 25 24 23 27 22 20 15 17 20 22 31 33 30 39 33 39 41
12 12 13 14 14 12 13 16 17 19 19 16 20 14 10 6 5 5 7 6 7 8 9 9 9 12 19 22 22 23 27 24 23 20 14 20 20 26 29 32 37 35 37 41 46
12 12 12 12 13 14 14 17 16 16 16 15 14 15 13 8 7 7 7 7 7 8 8 11 8 10 14 20 23 23 23 21 21 17 14 18 19 24 25 25 22 27 37 41 56
11 12 12 12 12 11 14 15 14 14 14 13 12 11 11 10 7 8 7 8 9 8 10 10 11 10 10 13 18 17 21 22 22 22 16 16 18 24 27 26 22 23 27 37 46
13 12 11 12 12 12 14 13 13 13 13 13 11 11 10 11 8 7 9 10 9 9 8 9 9 9 7 9 13 19 19 19 19 17 16 21 17 24 26 33 34 29 29 36 46
14 13 12 11 13 13 16 12 12 13 16 13 12 12 11 11 11 8 9 9 10 9 9 8 6 7 7 10 10 13 18 17 15 17 17 16 18 17 23 34 33 39 34 42 47
12 13 13 13 12 13 13 13 14 14 14 13 12 11 11 11 11 14 10 9 11 11 10 9 10 7 7 9 10 13 14 14 15 16 16 16 17 13 23 31 25 38 40 41 45
14 13 12 13 17 14 13 15 17 17 15 13 11 11 10 11 11 12 12 10 11 12 12 9 8 8 8 12 12 11 15 18 18 16 14 17 19 14 24 29 20 36 40 40 42
17 15 13 12 17 15 15 17 19 18 17 15 13 13 12 11 11 12 13 13 11 13 15 16 13 9 10 10 19 11 15 16 18 16 16 19 17 17 23 20 26 33 34 39 40
23 20 18 17 16 17 18 19 18 18 16 17 14 13 13 13 12 12 13 15 15 11 15 15 16 14 11 12 15 22 16 16 18 18 19 15 21 25 22 27 33 38 36 36 39
24 30 28 21 18 20 19 18 18 18 16 15 14 14 14 16 14 12 13 13 15 15 12 17 19 15 15 15 16 20 24 18 18 17 20 18 23 25 30 38 40 36 41 39 40
25 33 34 26 25 25 23 19 19 18 14 13 13 16 16 20 19 14 15 14 13 14 14 13 16 17 19 17 17 16 17 21 18 21 20 29 32 25 28 27 47 37 42 38 35
20 28 32 24 29 31 30 28 23 18 14 13 14 16 18 21 21 18 18 17 15 12 13 13 16 20 25 22 17 21 23 20 21 23 21 18 31 27 27 23 27 42 38 36 36
20 23 21 23 27 31 34 32 27 25 21 15 14 14 17 19 21 20 21 21 16 12 15 15 16 23 19 21 20 19 24 27 26 29 31 28 25 30 34 29 27 34 31 34 35
22 18 14 10 21 31 31 34 31 28 25 20 17 15 16 17 19 23 21 24 16 13 17 15 20 20 20 19 20 25 17 20 22 25 24 23 28 31 42 32 30 34 36 36 33
20 27 28 16 13 16 29 32 33 33 29 25 22 18 16 18 19 21 20 28 21 18 15 16 20 20 18 24 25 25 28 26 18 22 25 32 47 47 55 33 35 37 37 33 34
29 23 18 30 25 19 22 24 33 35 33 32 29 24 19 17 23 31 28 28 32 25 19 19 21 20 23 21 21 26 26 28 23 23 26 27 42 41 36 33 36 36 35 34 38
16 16 20 31 23 21 23 24 30 33 36 36 33 28 26 26 21 24 31 38 36 41 30 26 24 23 24 23 21 22 24 28 28 27 28 28 47 47 37 34 38 37 35 35 37

GFSSW_prec_cthk_048.txt.gz
RH
14 17 17 16 18 16 15 14 12 9 7 7 6 6 6 11 15 17 20 21 24 28 33 32 34 33 35 28 37 42 44 43 44 42 40 48 43 37 29 27 25 27 31 32 32
18 17 18 18 19 17 15 13 11 9 7 7 6 6 6 7 10 15 19 20 23 25 29 23 26 31 29 26 32 43 50 38 33 29 33 38 40 49 41 32 31 29 30 30 35
18 18 18 18 20 18 15 13 10 8 8 7 7 6 7 8 8 13 16 18 22 22 21 21 21 24 27 27 33 44 45 41 35 22 25 37 47 45 39 28 31 29 32 35 39
19 19 19 20 20 17 15 14 11 9 8 7 7 6 7 8 25 18 12 13 17 22 20 19 18 21 24 27 30 33 39 31 29 25 26 31 38 43 34 36 34 26 29 30 36
19 20 20 21 20 18 16 15 14 12 9 8 7 6 7 14 18 18 10 6 8 16 20 20 17 19 24 29 31 29 37 32 26 25 19 24 30 32 36 37 30 25 26 29 34
21 20 19 20 20 18 18 15 14 12 11 8 7 6 6 12 15 14 8 7 8 12 16 16 15 19 23 29 31 30 36 30 25 25 19 18 28 34 39 45 34 27 26 30 37
22 22 20 21 22 21 19 17 14 12 11 8 8 6 6 8 8 12 7 8 11 12 14 14 14 16 22 26 28 31 27 26 25 24 22 25 27 26 35 52 52 31 27 31 43
18 18 22 21 21 20 19 15 16 14 12 9 8 7 7 8 7 6 7 8 7 8 11 14 12 13 17 22 26 24 27 35 38 26 18 16 25 26 32 50 54 30 29 34 46
15 17 18 18 19 18 19 17 17 13 15 11 9 12 10 8 5 4 7 9 11 8 9 9 9 11 15 19 21 25 28 29 30 26 16 14 23 25 31 38 36 34 31 35 46
14 14 14 14 16 16 16 18 18 14 15 14 11 9 8 7 6 6 7 8 10 10 10 8 7 9 13 18 23 30 44 37 32 27 17 14 18 21 34 33 32 39 38 36 43
12 13 14 14 13 14 14 17 22 23 19 18 21 15 14 9 7 5 6 7 7 8 11 10 9 10 12 17 21 22 31 38 39 29 17 15 19 22 29 22 33 42 46 43 46
12 12 12 12 13 13 14 16 19 18 18 19 19 18 17 15 8 6 6 7 7 7 9 11 12 10 11 16 19 21 22 26 22 20 18 12 17 20 25 28 24 22 33 43 50
11 11 11 11 12 12 14 17 15 14 15 14 13 13 14 15 12 8 7 7 8 8 9 11 11 11 10 13 15 19 22 19 19 21 18 15 15 19 21 24 32 35 25 43 50
12 11 11 11 11 13 13 16 14 15 15 13 12 12 12 12 13 10 10 8 9 9 10 10 13 13 12 10 10 12 14 17 17 18 16 20 21 22 23 36 43 31 32 41 45
14 13 12 11 13 13 17 14 13 14 16 12 13 12 10 11 11 12 9 9 10 11 9 11 10 10 10 9 8 16 15 17 17 16 16 16 16 27 23 36 48 46 37 44 45
15 15 14 14 12 12 13 14 13 14 15 14 14 12 12 11 10 14 11 9 10 10 12 9 13 9 9 8 9 12 13 17 16 16 17 17 17 27 27 35 47 47 36 36 40
14 15 15 14 17 15 12 13 16 16 11 14 13 12 11 11 11 12 14 13 10 12 12 13 10 10 8 7 10 10 15 19 20 18 17 15 15 21 26 23 29 37 31 32 32
13 12 12 12 16 17 14 15 17 14 14 15 13 13 12 11 12 11 14 15 12 11 15 17 15 9 8 7 14 15 13 18 21 19 27 26 23 23 23 23 28 33 31 30 32
18 17 16 17 14 15 16 17 15 15 16 17 16 14 15 13 12 13 13 14 15 13 14 16 17 15 14 10 10 19 18 12 17 17 19 25 27 26 25 36 40 39 35 37 35
22 27 27 22 18 17 16 19 16 15 19 20 19 16 15 14 13 13 14 13 15 17 16 15 20 17 14 14 13 13 22 21 16 21 22 17 28 33 33 47 49 43 39 38 36
25 33 34 27 19 19 18 16 17 19 23 20 19 17 17 16 14 15 15 14 14 16 17 18 17 18 15 17 18 20 21 24 19 18 26 28 36 34 42 61 41 44 46 37 41
28 38 40 33 26 23 22 20 21 22 24 18 16 15 16 19 20 20 17 14 14 14 16 17 15 17 21 17 19 19 19 17 20 22 23 26 30 28 30 34 51 53 36 35 35
22 32 35 34 27 30 30 25 27 27 24 18 14 13 16 19 24 25 21 19 16 15 16 16 16 20 22 26 23 20 17 22 26 22 25 34 37 33 41 48 48 48 30 33 36
24 26 19 20 25 32 33 35 34 26 23 18 17 14 15 16 21 23 23 23 21 18 15 17 19 20 20 20 19 22 23 19 24 28 26 27 41 42 48 49 51 49 37 36 37
17 30 37 18 11 22 35 35 36 35 31 27 22 17 17 18 19 19 21 25 28 22 18 16 21 23 21 22 24 24 27 25 20 15 21 28 40 45 41 39 56 51 38 38 38
29 31 31 31 27 18 19 26 35 36 35 34 28 26 22 19 19 22 21 24 26 32 26 16 21 19 20 22 23 23 27 34 32 22 20 20 37 38 35 30 30 42 39 36 34
22 23 26 28 24 25 23 21 21 32 36 37 36 32 30 27 24 19 31 31 35 35 45 29 22 23 23 20 21 22 22 23 22 25 20 24 35 40 38 34 39 41 41 35 33